Date,TemperatureHighF,TemperatureAvgF,TemperatureLowF,DewpointHighF,DewpointAvgF,DewpointLowF,HumidityHigh,HumidityAvg,HumidityLow,PressureMaxIn,PressureMinIn,WindSpeedMaxMPH,WindSpeedAvgMPH,GustSpeedMaxMPH,PrecipitationSumIn
2013-11-1,60.2,54.3,51.2,51.1,49.0,47.3,90,83,66,30.27,29.84,7,0,7,0.00
2013-11-2,54.1,49.8,44.3,49.8,44.3,39.1,89,82,65,29.88,29.46,35,4,35,0.46
2013-11-3,51.6,44.6,40.9,42.6,40.0,38.0,90,84,63,30.11,29.88,10,1,10,0.01
2013-11-4,49.5,43.7,36.9,40.9,37.7,33.6,90,80,54,30.19,30.05,7,1,7,0.04
2013-11-5,49.7,46.4,43.5,46.6,43.2,40.1,90,89,85,30.26,30.01,10,2,10,0.04
2013-11-6,51.6,47.6,43.8,46.0,43.9,40.8,90,87,77,30.32,30.02,6,0,6,0.07
2013-11-7,50.3,48.8,47.6,47.2,45.7,44.1,90,89,82,30.02,29.71,23,4,23,0.74
2013-11-8,55.0,49.1,46.4,45.9,44.0,42.9,89,83,69,30.16,29.96,11,2,11,0.00
2013-11-9,50.8,45.6,41.3,44.7,42.1,38.6,90,87,76,30.15,30.07,7,1,7,0.07
2013-11-10,49.0,46.4,44.4,45.6,43.3,41.4,90,89,87,30.15,30.09,8,2,10,0.05
2013-11-11,59.2,49.0,44.5,48.1,44.1,41.8,90,84,65,30.16,30.00,8,1,8,0.00
2013-11-12,58.6,52.7,48.3,53.2,48.2,43.2,90,85,71,30.35,30.02,16,2,16,0.13
2013-11-13,54.4,51.8,48.6,49.2,48.0,45.5,90,87,81,30.43,30.30,18,1,18,0.00
2013-11-14,48.9,46.8,44.3,46.1,43.8,40.6,90,89,86,30.31,30.05,8,0,8,0.05
2013-11-15,48.6,45.0,42.5,45.7,41.9,39.5,90,89,86,30.06,29.32,28,3,28,0.13
2013-11-16,48.1,44.1,40.6,42.2,38.7,36.8,90,81,70,29.77,29.34,11,2,12,0.01
2013-11-17,51.5,46.9,42.4,46.7,43.2,37.6,90,87,82,29.89,29.77,21,4,21,0.00
2013-11-18,51.7,49.3,47.3,48.8,46.2,44.1,90,89,87,29.89,29.55,21,3,21,0.65
2013-11-19,52.0,43.6,37.2,48.9,36.7,23.7,91,78,51,30.07,29.54,22,2,22,0.15
2013-11-20,42.6,37.1,32.8,31.6,28.1,24.6,84,70,52,30.51,30.07,17,2,17,0.00
2013-11-21,42.2,35.1,30.1,29.7,27.3,24.8,87,74,55,30.67,30.51,11,2,11,0.00
2013-11-22,43.7,36.9,29.8,33.1,29.3,26.5,88,74,58,30.66,30.45,12,2,12,0.00
2013-11-23,50.9,40.5,34.8,39.2,33.7,27.1,86,77,58,30.45,30.20,10,1,10,0.00
2013-11-24,47.6,41.3,36.3,41.8,37.2,33.3,90,85,74,30.26,30.17,6,1,8,0.00
2013-11-25,53.3,42.0,35.9,42.8,37.6,32.4,90,85,60,30.32,30.25,6,0,6,0.00
2013-11-26,52.9,44.1,36.9,42.3,37.7,33.6,90,79,59,30.27,30.09,7,1,7,0.01
2013-11-27,54.2,46.5,41.0,45.2,40.5,35.8,89,80,63,30.10,29.96,9,1,9,0.00
2013-11-28,48.0,41.2,36.1,44.3,38.1,32.6,90,88,86,30.18,30.02,6,1,6,0.00
2013-11-29,47.2,44.2,40.1,44.1,41.2,36.5,90,89,87,30.32,30.18,7,1,7,0.01
2013-11-30,49.6,48.0,45.3,46.4,44.3,42.3,90,87,81,30.33,30.08,20,3,20,0.04